Regional Weather Roundup
Issued by NWS

Home | Current Version | Previous Version | Graphics & Text | Print | Product List | Glossary On
Versions: 1 2 3 4 5 6 7 8 9 10 11 12 13 14 15 16 17 18 19 20 21 22 23 24 25 26 27
000
ASUS45 KPSR 232210
RWRAZ

ARIZONA HOURLY REGIONAL WEATHER ROUNDUP
NATIONAL WEATHER SERVICE PHOENIX AZ
300 PM MST THU FEB 23 2017

NOTE: FAIR INDICATES FEW OR NO CLOUDS BELOW 12,000 FEET WITH NO
SIGNIFICANT WEATHER AND/OR OBSTRUCTIONS TO VISIBILITY.

AZZ001>003-036-232300-
NORTHWEST ARIZONA

CITY           SKY/WX    TMP DP  RH WIND       PRES   REMARKS
BULLHEAD CITY  SUNNY     61  12  15 CALM      29.92F
KINGMAN        SUNNY     50 -14   6 W12G23    29.89F
$$

AZZ004>008-015-016-018-232300-
NORTH CENTRAL ARIZONA

CITY           SKY/WX    TMP DP  RH WIND       PRES   REMARKS
GRAND CANYON   PTSUNNY   34  12  40 NW10G20   29.80F WCI  26
WILLIAMS       PTSUNNY   37  10  32 W15G24    29.82S WCI  28
PRESCOTT       MOSUNNY   45  18  34 W8G17     29.84S
FLAGSTAFF      CLOUDY    36  16  44 SW18G28   29.79F WCI  26
PAYSON         SUNNY     45  21  39 W8G16     29.87S
PAGE           MOSUNNY   46 -10   9 W14G30    29.78S
$$

AZZ009>014-017-232300-
NORTHEAST ARIZONA

CITY           SKY/WX    TMP DP  RH WIND       PRES   REMARKS
WINSLOW        SUNNY     51  13  21 W14G32    29.78F
SAINT JOHNS    SUNNY     51   3  14 W24G33    29.72F
WINDOW ROCK    MOSUNNY   39   9  29 W16G30    29.75R WCI  30
SHOW LOW       SUNNY     43   7  22 SW24      29.79F
$$

AZZ023-232300-
GREATER PHOENIX AREA

CITY           SKY/WX    TMP DP  RH WIND       PRES   REMARKS
PHOENIX        MOSUNNY   63  21  20 W14G24    29.88F
BUCKEYE        SUNNY     61  23  23 SW8G17    29.90F
GLENDALE       MOSUNNY   61  27  27 SW12      29.90F
LUKE AFB       SUNNY     62  24  23 SW9G18    29.87F
DEER VALLEY    SUNNY     59  26  28 SW13G22   29.87F
SCOTTSDALE     SUNNY     61  23  23 SW12      29.89F
MESA-FALCON    SUNNY    N/A N/A N/A MISG      29.86F
MESA-GATEWAY   SUNNY     59  21  23 NW12G17   29.90S
CHANDLER       SUNNY     61  19  20 SW9       29.89F
$$

AZZ027-028-232300-
SOUTHWEST MARICOPA COUNTY AND PINAL COUNTY

CITY           SKY/WX    TMP DP  RH WIND       PRES   REMARKS
CASA GRANDE    NOT AVBL
GILA BEND      SUNNY     63  15  15 SW13      29.90F
$$

AZZ503-504-507>509-232300-
SOUTHEAST ARIZONA

CITY           SKY/WX    TMP DP  RH WIND       PRES   REMARKS
TUCSON         SUNNY     63   7  11 NW13G20   29.90F
DAVIS-MONTHAN  SUNNY     62   8  11 W10       29.88F
RYAN FIELD     SUNNY     64  10  12 NW12G20   29.90F
NOGALES        SUNNY     64  11  12 W16G24    29.90F
SIERRA VISTA   SUNNY     63   7  11 SW23G32   29.88F
DOUGLAS        SUNNY     69  15  12 W22G37    29.83F
SAFFORD        SUNNY     63  10  12 NW26G37   29.78F
$$

AZZ020-021-025-026-031-232300-
SOUTHWEST ARIZONA

CITY           SKY/WX    TMP DP  RH WIND       PRES   REMARKS
YUMA           SUNNY     64  23  21 W9        29.93F
$$

CAZ031-033-041-043-047-048-061-232300-
SOUTHERN CALIFORNIA

CITY           SKY/WX    TMP DP  RH WIND       PRES   REMARKS
DOWNTOWN L.A.  SUNNY     61  20  20 NW7G20    30.01F
L.A. AIRPORT   MOSUNNY   57  34  41 W23       30.04F
SAN DIEGO      MOSUNNY   60  35  39 NW15      30.08F
BURBANK        SUNNY     57  15  19 NW16G26   30.01F
ONTARIO        MOSUNNY   57  26  30 S9        29.99F
RIVERSIDE      SUNNY     59  26  28 SW8       30.00F
PALM SPRINGS   SUNNY     66  29  24 N10G21    29.94F
EL CENTRO NAS  MOSUNNY   66  25  21 NW10      29.95F
IMPERIAL       SUNNY     66  30  26 N7        29.93F
BLYTHE         SUNNY     63  13  14 NW15      29.94F
NEEDLES        SUNNY     63  14  15 E7        29.91F
$$

NVZ020-UTZ003-232300-
SOUTHERN NEVADA-UTAH

CITY           SKY/WX    TMP DP  RH WIND       PRES   REMARKS
LAS VEGAS      MOSUNNY   54   6  14 NW12      29.89F
SALT LAKE CITY CLOUDY    32  24  72 W18       29.82S WCI  20
$$

NMZ009-TXZ055-232300-
NEW MEXICO-WEST TEXAS

CITY           SKY/WX    TMP DP  RH WIND       PRES   REMARKS
ALBUQUERQUE    MOSUNNY   54   5  14 W26G36    29.66F
EL PASO        MOSUNNY   72  10   9 W40G47    29.69F
$$


........................KEY........................
SKY/WX - SKY CONDITION/WEATHER
TMP    - TEMPERATURE IN FAHRENHEIT
DP     - DEW POINT IN FAHRENHEIT
RH     - RELATIVE HUMIDITY IN PERCENT
WIND   - DIRECTION AND SPEED IN MILES PER HOUR (MPH)
VRB    - VARIABLE WIND DIRECTION
PRES   - MEAN SEA LEVEL PRESSURE IN INCHES OF MERCURY
         F - FALLING PRESSURE   R - RISING PRESSURE
         S - STEADY PRESSURE
VSB    - VISIBILITY IN MILES
HX     - HEAT INDEX IN FAHRENHEIT
WCI    - WIND CHILL INDEX IN FAHRENHEIT
TC     - TEMPERATURE IN CELSIUS WHICH IS ALSO KNOWN AS
         TEMPERATURE IN CENTIGRADE
AFB    - AIR FORCE BASE
         LUKE AFB IS LUKE AIR FORCE BASE
         DAVIS-MONTHAN IS DAVIS-MONTHAN AIR FORCE BASE
NAS    - NAVAL AIR STATION
         EL CENTRO NAS IS EL CENTRO NAVAL AIR STATION
N/A    - NOT AVAILABLE





USA.gov is the U.S. government's official web portal to all federal, state and local government web resources and services.